Location: Baix
(44.7118°N, 4.7648°E)
Time: 16:13:37
(UTC+00:00)

A-11 Canister half - Visible Passes

Search period start: 26 November 2020 00:00
Search period end: 06 December 2020 00:00
Orbit: 1516 x 1684 km, 47.2° (Epoch: 26 November)

Date Brightness Start Highest point End Pass type
(mag) Time Alt. Az. Time Alt. Az. Time Alt. Az.
26 Nov 9.6 17:52:37 10° WNW 18:02:33 60° SW 18:12:23 10° SE visible
26 Nov 10.8 19:59:11 10° W 20:06:03 21° SW 20:11:50 12° SSW visible
27 Nov 9.6 17:29:40 10° WNW 17:39:38 63° SSW 17:49:32 10° SE visible
27 Nov 10.8 19:36:00 10° W 19:43:13 23° SW 19:50:23 10° S visible
28 Nov 9.6 17:06:42 10° WNW 17:16:43 66° SSW 17:26:40 10° SE visible
28 Nov 10.8 19:12:51 10° W 19:20:24 24° SW 19:27:52 10° S visible
29 Nov 9.6 16:43:44 10° WNW 16:53:47 68° SSW 17:03:47 10° SE visible
29 Nov 10.8 18:49:44 10° WNW 18:57:33 26° SW 19:05:19 10° S visible
30 Nov 9.6 16:20:47 10° WNW 16:30:51 71° SSW 16:40:55 10° SE visible
30 Nov 10.8 18:26:38 10° WNW 18:34:43 28° SW 18:42:44 10° S visible
01 Dec 10.8 18:03:34 10° WNW 18:11:52 30° SW 18:20:08 10° S visible
02 Dec 10.8 17:40:31 10° WNW 17:49:00 32° SW 17:57:29 10° S visible
03 Dec 10.8 17:17:28 10° WNW 17:26:09 34° SW 17:34:49 10° SSE visible
04 Dec 10.8 16:54:27 10° WNW 17:03:17 36° SW 17:12:07 10° SSE visible
05 Dec 10.7 16:31:26 10° WNW 16:40:25 38° SW 16:49:25 10° SSE visible
